Regional Weather Roundup
Issued by NWS

Home | Current Version | Previous Version | Graphics & Text | Print | Product List | Glossary On
Versions: 1 2 3 4 5 6 7 8 9 10 11 12 13 14 15 16 17 18 19 20 21 22 23 24 25 26 27 28 29 30 31 32 33 34 35 36 37 38 39 40 41 42 43 44 45 46 47 48 49 50
895
ASUS43 KOAX 301610
RWRNE

WEATHER ROUNDUP FOR NEBRASKA
NATIONAL WEATHER SERVICE OMAHA NE
1100 AM CDT FRI SEP 30 2016

NOTES: SATELLITE DATA IS BEING USED TO AUGMENT CLOUD COVER ABOVE
       12000 FEET.
       "FAIR" INDICATES FEW OR NO CLOUDS BELOW 12,000 FEET WITH NO
       SIGNIFICANT WEATHER AND/OR OBSTRUCTIONS TO VISIBILITY.

  * THESE STATIONS DO NOT REPORT WEATHER SUCH AS RAIN...SNOW OR FOG.

NEZ001>004-019>022-054>056-301700-
NEBRASKA PANHANDLE

CITY           SKY/WX    TMP DP  RH WIND       PRES   REMARKS
SCOTTSBLUFF    MOSUNNY   55  42  61 SE6       30.21R
ALLIANCE       SUNNY     58  42  55 S15       30.20R
CHADRON        CLOUDY    59  42  53 S12       30.13S
KIMBALL        CLOUDY    62  47  57 CALM      30.23S
SIDNEY         CLOUDY    55  42  61 S9        30.23S
$$

NEZ057>060-069>072-079>082-301700-
SOUTHWEST NEBRASKA

CITY           SKY/WX    TMP DP  RH WIND       PRES   REMARKS
NORTH PLATTE   CLOUDY    61  46  57 SE14      30.26S
IMPERIAL       MOSUNNY   60  44  55 S16       30.22F
LEXINGTON      CLOUDY    61  48  61 S10       30.27S
MCCOOK         MOSUNNY   63  47  55 S15       30.25S
OGALLALA       MOSUNNY   59  46  61 SE7       30.23F
$$

NEZ005>010-023>029-035>040-094-301700-
NORTH CENTRAL NEBRASKA

CITY           SKY/WX    TMP DP  RH WIND       PRES   REMARKS
VALENTINE      MOSUNNY   61  44  53 S20       30.22S
AINSWORTH      MOSUNNY   62  48  61 S18       30.24S
BROKEN BOW     CLOUDY    61  47  59 S16G24    30.27F
O`NEILL        SUNNY     64  46  53 SE12      30.29F
ORD            SUNNY     61  46  57 S8        30.27F
THEDFORD       MOSUNNY   64  47  55 S18G24    30.26S
$$

NEZ041-046>049-061>064-073>077-083>087-301700-
SOUTH CENTRAL NEBRASKA

CITY           SKY/WX    TMP DP  RH WIND       PRES   REMARKS
GRAND ISLAND   SUNNY     61  49  64 VRB5      30.29F
AURORA         SUNNY     63  48  59 S5        30.29F
HASTINGS       SUNNY     64  48  56 VRB3      30.29F
HEBRON         SUNNY     64  49  58 CALM      30.29S
HOLDREGE       CLOUDY    62  46  57 S9        30.28S
KEARNEY *      CLOUDY    61  46  59 SE9       30.27F
YORK           SUNNY     63  48  59 SE3       30.30F
$$

NEZ011>018-030>034-042>045-301700-
NORTHEAST NEBRASKA

CITY           SKY/WX    TMP DP  RH WIND       PRES   REMARKS
NORFOLK        SUNNY     62  49  62 VRB5      30.30F
ALBION         SUNNY     62  47  59 SE6       30.29F
BLAIR          SUNNY     64  51  62 E6        30.30F
FREMONT        SUNNY     62  51  66 CALM      30.31F HAZE
TEKAMAH        SUNNY     64  50  60 CALM      30.31S
WAYNE          SUNNY     64  53  69 CALM      30.32F
$$

NEZ050>053-065>068-078-088>093-301700-
SOUTHEAST NEBRASKA

CITY           SKY/WX    TMP DP  RH WIND       PRES   REMARKS
LINCOLN        SUNNY     63  51  65 E5        30.30F
OMAHA EPPLEY   MOSUNNY   63  51  65 N3        30.30S
BEATRICE       SUNNY     65  52  62 CALM      30.29S
FALLS CITY     SUNNY     68  49  50 N7        30.26F
NEBRASKA CITY  SUNNY     65  44  47 NE6       30.29F
PLATTSMOUTH    SUNNY     65  46  49 NE6       30.30S
$$

NEZ044-045-051>053-067-301700-
OMAHA AREA

CITY           SKY/WX    TMP DP  RH WIND       PRES   REMARKS
OMAHA EPPLEY   MOSUNNY   63  51  65 N3        30.30S
BLAIR          SUNNY     64  51  62 E6        30.30F
FREMONT        SUNNY     62  51  66 CALM      30.31F HAZE
MILLARD        SUNNY     65  50  58 SE5       30.29F
OFFUTT AFB     SUNNY     64  52  64 VRB1      30.29S
PLATTSMOUTH    SUNNY     65  46  49 NE6       30.30S
WAHOO          FAIR      64  50  60 CALM      30.30F
$$




USA.gov is the U.S. government's official web portal to all federal, state and local government web resources and services.